Weather History for KEIK - July, 2013

Change the Weather History Date:

Sunday, July 21, 2013

  Actual Average (KBJC) Record (KBJC)
Temperature  
Mean Temperature 71 °F -  
Max Temperature 89 °F 86 °F 100 °F (2005)
Min Temperature 53 °F 62 °F 46 °F (1988)
Cooling Degree Days 6    
Growing Degree Days 21 (Base 50)    
Moisture  
Dew Point 54 °F    
Average Humidity 60    
Maximum Humidity 95    
Minimum Humidity 22    
Precipitation  
Precipitation 0.00 in - - ()
Sea Level Pressure  
Sea Level Pressure 29.98 in    
Wind  
Wind Speed 3 mph (North)    
Max Wind Speed 13 mph    
Max Gust Speed 23 mph    
Visibility 10 miles    
Events      
Averages and records for this station are not official NWS values.
T = Trace of Precipitation, MM = Missing Value Source: NWS Daily Summary

Daily Weather History Graph

Daily Weather History Graph

Search for Another Location

Airport or City:

Trip Planner

Search our weather history database for the weather conditions in past years. The results will help you decide how hot, cold, wet, or windy it might be!

Date:

Astronomy

Jul. 21, 2013 Rise Set
Actual Time 5:49 AM MDT 8:23 PM MDT
Civil Twilight 5:17 AM MDT 8:54 PM MDT
Nautical Twilight 4:38 AM MDT 9:33 PM MDT
Astronomical Twilight 3:54 AM MDT 10:17 PM MDT
Moon 7:24 PM MDT (7/21) 4:37 AM MDT (7/21)
Length of Visible Light 15h 37m
Length of Day
14h 34m
Waxing Gibbous, 98% of the Moon is Illuminated
Jul 21
Waxing Gibbous
Jul 22
Full
Jul 29
Last Quarter
Aug 6
New
Aug 14
First Quarter

Hourly Weather History & Observations

Time (MDT) Temp. Heat Index Dew Point Humidity Pressure Visibility Wind Dir Wind Speed Gust Speed Precip Events Conditions
12:15 AM 64.0 °F - 54.1 °F 70% 30.02 in 10.0 mi SSW 3.5 mph - N/A   Clear
12:35 AM 64.0 °F - 54.3 °F 71% 30.01 in 10.0 mi Calm Calm - N/A   Clear
12:55 AM 60.3 °F - 55.4 °F 84% 30.00 in 10.0 mi Calm Calm - N/A   Clear
1:15 AM 60.6 °F - 55.8 °F 84% 30.00 in 10.0 mi Calm Calm - N/A   Clear
1:35 AM 60.3 °F - 55.9 °F 86% 30.00 in 10.0 mi Calm Calm - N/A   Clear
1:55 AM 58.8 °F - 55.2 °F 88% 30.00 in 10.0 mi Calm Calm - N/A   Clear
2:15 AM 57.9 °F - 55.0 °F 90% 29.99 in 10.0 mi Calm Calm - N/A   Clear
2:35 AM 57.6 °F - 54.9 °F 91% 30.00 in 10.0 mi ENE 3.5 mph - N/A   Clear
2:55 AM 57.9 °F - 54.9 °F 90% 30.00 in 10.0 mi North 4.6 mph - N/A   Clear
3:15 AM 57.0 °F - 54.7 °F 92% 29.99 in 10.0 mi Calm Calm - N/A   Clear
3:35 AM 57.0 °F - 55.0 °F 93% 29.99 in 10.0 mi Calm Calm - N/A   Clear
3:55 AM 56.8 °F - 54.3 °F 91% 29.98 in 10.0 mi Calm Calm - N/A   Clear
4:15 AM 56.3 °F - 54.0 °F 92% 29.99 in 10.0 mi Calm Calm - N/A   Clear
4:35 AM 56.3 °F - 53.8 °F 91% 29.99 in 10.0 mi Calm Calm - N/A   Clear
4:55 AM 55.9 °F - 53.6 °F 92% 29.99 in 10.0 mi Calm Calm - N/A   Clear
5:15 AM 55.0 °F - 52.9 °F 92% 29.99 in 10.0 mi Calm Calm - N/A   Clear
5:35 AM 53.2 °F - 51.8 °F 95% 29.99 in 10.0 mi Calm Calm - N/A   Clear
5:55 AM 53.1 °F - 51.8 °F 95% 29.98 in 10.0 mi WSW 3.5 mph - N/A   Clear
6:15 AM 53.2 °F - 52.0 °F 95% 29.98 in 10.0 mi WSW 3.5 mph - N/A   Clear
6:35 AM 54.1 °F - 52.9 °F 95% 29.99 in 10.0 mi Calm Calm - N/A   Clear
6:55 AM 56.5 °F - 54.9 °F 94% 29.98 in 10.0 mi Calm Calm - N/A   Clear
7:15 AM 59.2 °F - 56.3 °F 90% 29.98 in 10.0 mi WNW 3.5 mph - N/A   Clear
7:35 AM 61.0 °F - 56.5 °F 85% 29.98 in 10.0 mi Calm Calm - N/A   Clear
7:55 AM 62.1 °F - 55.8 °F 80% 29.98 in 10.0 mi Calm Calm - N/A   Clear
8:15 AM 64.4 °F - 56.1 °F 74% 29.99 in 10.0 mi North 3.5 mph - N/A   Clear
8:35 AM 65.7 °F - 55.9 °F 71% 29.99 in 10.0 mi North 4.6 mph - N/A   Clear
8:55 AM 66.7 °F - 55.4 °F 67% 29.99 in 10.0 mi NNE 6.9 mph - N/A   Clear
9:15 AM 69.1 °F - 56.1 °F 63% 30.01 in 10.0 mi NNE 11.5 mph - N/A   Clear
9:35 AM 70.7 °F - 57.9 °F 64% 30.02 in 10.0 mi NNE 11.5 mph - N/A   Clear
9:55 AM 70.7 °F - 58.8 °F 66% 30.03 in 10.0 mi NE 12.7 mph - N/A   Clear
10:15 AM 70.9 °F - 59.4 °F 67% 30.04 in 10.0 mi North 12.7 mph 23.0 mph N/A   Scattered Clouds
10:35 AM 71.1 °F - 58.5 °F 64% 30.05 in 10.0 mi North 10.4 mph 16.1 mph N/A   Scattered Clouds
10:55 AM 72.0 °F - 58.5 °F 62% 30.05 in 10.0 mi North 11.5 mph - N/A   Clear
11:15 AM 73.6 °F - 58.5 °F 59% 30.05 in 10.0 mi North 9.2 mph - N/A   Clear
11:35 AM 73.8 °F - 58.3 °F 58% 30.04 in 10.0 mi North 8.1 mph - N/A   Clear
11:55 AM 75.7 °F - 58.8 °F 56% 30.04 in 10.0 mi NNW 9.2 mph - N/A   Clear
12:15 PM 76.6 °F - 58.3 °F 53% 30.03 in 10.0 mi NNE 9.2 mph - N/A   Clear
12:35 PM 78.3 °F - 57.6 °F 49% 30.03 in 10.0 mi NNW 10.4 mph - N/A   Clear
12:55 PM 78.6 °F - 56.5 °F 46% 30.02 in 10.0 mi NNE 5.8 mph - N/A   Clear
1:15 PM 79.3 °F - 56.7 °F 46% 30.02 in 10.0 mi North 3.5 mph - N/A   Clear
1:35 PM 80.8 °F 80.9 °F 57.0 °F 44% 30.01 in 10.0 mi North 6.9 mph - N/A   Clear
1:55 PM 81.5 °F 81.0 °F 54.7 °F 40% 30.00 in 10.0 mi ENE 4.6 mph - N/A   Clear
2:15 PM 83.5 °F 82.5 °F 55.0 °F 38% 30.00 in 10.0 mi North 3.5 mph - N/A   Clear
2:35 PM 84.4 °F 83.1 °F 54.3 °F 36% 29.99 in 10.0 mi NNE 5.8 mph - N/A   Clear
2:55 PM 85.5 °F - 52.9 °F 33% 29.99 in 10.0 mi NNW 5.8 mph - N/A   Clear
3:15 PM 85.6 °F 83.8 °F 53.1 °F 33% 29.98 in 10.0 mi NNW 8.1 mph - N/A   Clear
3:35 PM 86.7 °F 85.1 °F 55.0 °F 34% 29.98 in 10.0 mi NNE 5.8 mph - N/A   Clear
3:55 PM 87.3 °F 85.3 °F 54.1 °F 32% 29.98 in 10.0 mi North 3.5 mph - N/A   Clear
4:15 PM 87.8 °F 85.9 °F 54.3 °F 32% 29.97 in 10.0 mi NNE 5.8 mph - N/A   Clear
4:35 PM 87.1 °F 85.1 °F 54.1 °F 32% 29.96 in 10.0 mi North 6.9 mph - N/A   Clear
4:55 PM 87.1 °F 85.1 °F 53.8 °F 32% 29.96 in 10.0 mi Calm Calm - N/A   Clear
5:15 PM 87.8 °F 85.5 °F 53.1 °F 30% 29.95 in 10.0 mi West 4.6 mph - N/A   Clear
5:35 PM 89.8 °F - 50.2 °F 26% 29.95 in 10.0 mi SW 5.8 mph - N/A   Clear
5:55 PM 87.1 °F - 51.3 °F 29% 29.94 in 10.0 mi SSE 3.5 mph - N/A   Clear
6:15 PM 89.2 °F - 50.9 °F 27% 29.94 in 10.0 mi South 4.6 mph - N/A   Clear
6:35 PM 88.9 °F - 50.9 °F 27% 29.94 in 10.0 mi SE 4.6 mph - N/A   Clear
6:55 PM 88.9 °F - 46.2 °F 23% 29.94 in 10.0 mi South 4.6 mph - N/A   Clear
7:15 PM 88.7 °F - 45.0 °F 22% 29.93 in 10.0 mi South 8.1 mph - N/A   Clear
7:35 PM 87.4 °F - 45.7 °F 23% 29.93 in 10.0 mi SSE 4.6 mph - N/A   Clear
7:55 PM 84.7 °F - 48.2 °F 28% 29.94 in 10.0 mi Calm Calm - N/A   Clear
8:15 PM 82.2 °F - 50.4 °F 33% 29.94 in 10.0 mi Calm Calm - N/A   Clear
8:35 PM 79.2 °F - 52.7 °F 40% 29.94 in 10.0 mi SSW 3.5 mph - N/A   Clear
8:55 PM 77.7 °F - 54.0 °F 44% 29.94 in 10.0 mi Calm Calm - N/A   Clear
9:15 PM 76.5 °F - 54.5 °F 46% 29.94 in 10.0 mi Calm Calm - N/A   Clear
9:35 PM 72.9 °F - 55.2 °F 54% 29.94 in 10.0 mi SW 3.5 mph - N/A   Clear
9:55 PM 70.3 °F - 55.4 °F 59% 29.94 in 10.0 mi SW 5.8 mph - N/A   Clear
10:15 PM 72.0 °F - 54.5 °F 54% 29.93 in 10.0 mi SSW 4.6 mph - N/A   Clear
10:35 PM 72.7 °F - 53.6 °F 51% 29.93 in 10.0 mi Calm Calm - N/A   Clear
10:55 PM 70.9 °F - 53.6 °F 54% 29.93 in 10.0 mi SW 3.5 mph - N/A   Clear
11:15 PM 67.3 °F - 53.2 °F 61% 29.93 in 10.0 mi WNW 4.6 mph - N/A   Clear
11:35 PM 66.6 °F - 53.8 °F 63% 29.93 in 10.0 mi Calm Calm - N/A   Clear
11:55 PM 67.6 °F - 52.9 °F 59% 29.93 in 10.0 mi South 4.6 mph - N/A   Clear